STARLINK-53 (44294 NORAD) Tracking and Keplerian Element Data

This shows tracking and keplerian element data for the satellite.

Feedback or suggestion? Click here.




ElementValue
Catalog44294
NameSTARLINK-53
Epoch Orbit7584
Epoch Day268.94288607
Epoch Year2020
RAAN72.7059
Inclination53.0045
Eccentricity0.0011435
Argument of Perigee305.7786
Mean Anonmoly53.9949
Mean Motion16.17235598
Decay Rate0.04878338
L11 44294U 19029BM 20268.94288607 .04878338 11770-4 29910-2 0 9990
L22 44294 53.0045 72.7059 0011435 305.7786 53.9949 16.17235598 75842



Live tracking and technical data element details for STARLINK-53 (NORAD 44294). STARLINK-53 can be tracked NOW for your location showing map with azimuth and elevation plus other details from your city location.







IsCatalogInMostPopularTable: catalog: 44294, numindb: 4020
Update: records affected: 1



GetName: 44294 STARLINK-53

Hit Count: updated at: Tue, 17 Sep 2024 12:34:18 GMT